Flag Weather past 2 weeks in Montreux, Vaud, Switzerland

Now
47 °F

Cool.


Feels Like: 47 °F
Forecast: 35 / 50 °F
Wind: 2 mph from North

Location: Aigle

Current Time: Nov 26, 2014 at 10:21:18 AM

Latest Report: Nov 26, 2014 at 9:00 AM


Visibility: N/A

Pressure: 30.00 "Hg

Humidity: 92%

Dew point: 45 °F

Location of MontreuxLocation

Historic Weather in Montreux — Graph

°F

Montreux temperature yesterday

Maximum temperature yesterday: 53 °F (at 12:00 PM)
Minimum temperature yesterday: 45 °F (at 4:00 AM)
Average temperature yesterday: 49 °F

Past Weeks' High & Low Weather Summary

 TemperatureHumidityPressure
High55 °F (Nov 24, 2:00 PM)100% (Nov 13, 6:00 AM)30.28 "Hg (Nov 13, 6:00 AM)
Low35 °F (Nov 23, 4:00 AM)47% (Nov 20, 12:00 PM)29.61 "Hg (Nov 15, 4:00 PM)
Average46 °F90%29.97 "Hg
* Reported Nov 11 9:00 AM — Nov 26 9:00 AM, Montreux, Weather by CustomWeather, © 2014

Note: Actual official high and low records may vary slightly from our data, if they occured in-between our weather recording intervals... More about our weather records

Advertising

Montreux weather history for previous 24 hours

 ConditionsComfort  
Time TempWeatherWind HumidityBarometerVisibility
9:00 AM
Nov 26
47 °FCool.2 mph92%30.00 "HgN/A
8:00 AM47 °FCool.3 mph93%29.99 "HgN/A
7:00 AM46 °FFog.1 mph96%30.01 "Hg2 mi
6:00 AM46 °FCool.3 mph96%30.01 "HgN/A
5:00 AM47 °FCool.1 mph95%30.02 "HgN/A
3:00 AM49 °FCool.2 mph89%30.03 "HgN/A
2:00 AM48 °FCool.1 mph96%30.05 "HgN/A
1:00 AM48 °FCool.No wind95%30.06 "HgN/A
12:00 AM48 °FCool.1 mph95%30.07 "HgN/A
11:00 PM
Nov 25
49 °FCool.1 mph94%30.08 "HgN/A
10:00 PM48 °FCool.No wind94%30.08 "HgN/A
9:00 PM50 °FCool.1 mph91%30.08 "HgN/A
8:00 PM49 °FCool.No wind92%30.09 "HgN/A
7:00 PM50 °FFog.No wind92%30.08 "Hg4 mi
6:00 PM50 °FCool.No wind88%30.08 "HgN/A
5:00 PM51 °FCool.1 mph85%30.08 "HgN/A
4:00 PM51 °FFog.2 mph83%30.08 "Hg4 mi
3:00 PM52 °FCool.2 mph80%30.09 "HgN/A
2:00 PM52 °FCool.5 mph83%30.09 "HgN/A
1:00 PM52 °FFog.6 mph84%30.11 "Hg3 mi
12:00 PM53 °FCool.3 mph90%30.12 "HgN/A
11:00 AM51 °FCool.1 mph90%30.14 "HgN/A
10:00 AM49 °FFog.3 mph95%30.15 "Hg2 mi
Weather by CustomWeather, © 2014

See weather overviewHow to use our weather pages